Weather in Jixi

China     45°17′43″N   130°58′17″E
temp.,
°C
wind,
m/s
gust,
m/s
humid.,
%
clouds,
%
prec.,
mm/h
press.,
hPa
HPBL,
m
25 july, sun
sun2523:00+22ssw11814 0.0 100713
02:00+22sw117850 0.0 100712
05:00+23sw1176100 0.0 100718
08:00+30sw235088 0.0 1007553
11:00+35sw3533100 0.0 10052035
14:00+37wsw452938 0.0 10042525
17:00+35s243699 0.0 10031691
20:00+27ese2265100 0.2 100425
26 july, mon
mon2623:00+24sse1171100 0.0 100515
02:00+23sw1172100 0.0 100413
05:00+23s117137 0.0 100426
08:00+30sw2341100 0.0 1004574
11:00+35sw3335100 0.0 10031659
14:00+36sw4531100 0.0 10022282
17:00+35ssw3436100 0.0 10011545
20:00+27s2160100 0.0 100318
27 july, tue
tue2723:00+25w016851 0.0 100311
02:00+24w1170100 0.0 100312
05:00+24wsw1172100 0.0 100435
08:00+31nw1247100 0.0 1004647
11:00+36ene2135100 0.0 10022059
14:00+35ese2234100 0.0 10012266
17:00+31nnw2244100 0.0 100039
20:00+28ene115849 0.0 100111
28 july, wed
wed2823:00+26wnw116354 0.0 100211
02:00+25wnw11696 0.0 100211
05:00+25wnw11685 0.0 100234
08:00+33nnw11425 0.0 1002689
11:00+37ese32324 0.0 10002530
14:00+38sse322894 0.0 9972525
17:00+29n3559100 0.4 99984
20:00+25w337441 0.8 100059
29 july, thu
thu2923:00+23wsw228535 0.1 100014
02:00+22w229298 0.5 100015
05:00+23w2391100 0.8 100072
08:00+29wnw226296 1.3 999520
11:00+33nw334498 0.0 9981438
14:00+34nw444187 0.0 9971657
17:00+33nnw224334 0.0 9961277
20:00+22sse118996 0.4 99816